Regional Weather Roundup
Issued by NWS

Home | Current Version | Previous Version | Graphics & Text | Print | Product List | Glossary On
Versions: 1 2 3 4 5 6 7 8 9 10 11 12 13 14 15 16 17 18 19 20 21 22 23 24 25 26 27 28 29 30 31 32 33 34 35 36 37 38 39 40 41 42 43 44 45 46 47 48 49 50
000
ASUS43 KLSX 300810
RWRMO

WEATHER SUMMARY FOR MISSOURI
NATIONAL WEATHER SERVICE SPRINGFIELD MO
300 AM CDT SUN AUG 30 2015

NOTE: "FAIR" INDICATES FEW OR NO CLOUDS BELOW 12,000 FEET WITH NO
       SIGNIFICANT WEATHER AND/OR OBSTRUCTIONS TO VISIBILITY.
       CURRENT SKY AND/OR WEATHER CONDITIONS ARE NOT AVAILABLE FOR
       CHILLICOTHE AND FARMINGTON.

MOZ001>031-035>038-043-044-053-054-300900-
...NORTHERN AND WESTERN MISSOURI...

CITY           SKY/WX    TMP DP  RH WIND       PRES   REMARKS
KANSAS CTY INT MOCLDY    64  58  80 N7        30.03F
KANSAS C DTWN  CLOUDY    68  65  90 N3        30.01F
LEE`S SUMMIT   CLOUDY    68  65  90 N6        30.02F
ST JOSEPH      CLOUDY    64  63  96 CALM      30.02F
CHILLICOTHE      N/A     66  65  96 N3        30.03F
KIRKSVILLE     CLOUDY    68  66  93 N5        30.04S FOG

$$
MOZ066>068-077>081-088>096-101>105-300900-
...SOUTHWEST MISSOURI...

CITY           SKY/WX    TMP DP  RH WIND       PRES   REMARKS
SPRINGFIELD    PTCLDY    70  66  87 SE7       29.99F
JOPLIN         CLEAR     69  69 100 MISG      29.99F FOG

$$
MOZ032>034-039>042-045>050-055>058-069>072-300900-
...CENTRAL MISSOURI...

CITY           SKY/WX    TMP DP  RH WIND       PRES   REMARKS
COLUMBIA       CLEAR     68  67  96 NE3       30.00F FOG
JEFFERSON CITY CLEAR     68  67  96 CALM      29.99F FOG
ROLLA          PTCLDY    66  64  93 S6        30.00F
SEDALIA        FOG       67  65  93 N5        30.01S VSB 1/4
WHITEMAN AFB   FOG       69  68  99 N1        29.99S VSB<1/4
WARRENSBURG    CLEAR     66  64  94 CALM      30.00F FOG
OSAGE BEACH    PTCLDY    70  64  83 CALM      30.00F

$$
MOZ051-052-059>065-300900-
...EAST CENTRAL MISSOURI...

CITY           SKY/WX    TMP DP  RH WIND       PRES   REMARKS
ST LOUIS INTL  MOCLDY    75  65  70 S5        30.01F
SPIRIT OF STL  CLEAR     70  68  93 CALM      29.99F
ST CHARLES     CLEAR     70  69  97 MISG      29.99F

$$
MOZ072>076-082>087-097>100-106>115-300900-
...SOUTH CENTRAL AND SOUTHEAST MISSOURI...

CITY           SKY/WX    TMP DP  RH WIND       PRES   REMARKS
CAPE GIRARDEAU CLOUDY    71  68  90 S6        30.03F
FARMINGTON     MOCLDY    68  66  94 CALM      30.05S
POPLAR BLUFF   CLOUDY    72  68  87 CALM      30.01F
WEST PLAINS    MOCLDY    67  64  90 CALM      30.04F

$$


USA.gov is the U.S. government's official web portal to all federal, state and local government web resources and services.